Time,TemperatureF,DewpointF,PressureIn,WindDirection,WindDirectionDegrees,WindSpeedMPH,WindSpeedGustMPH,Humidity,HourlyPrecipIn,Conditions,Clouds,dailyrainin,SoftwareType,DateUTC
2013-10-05 00:00:00,75.7,68.7,30.05,NE,45,5.0,-999.0,79,0.00,,,0.00,Wunderground v.1.15,2013-10-05 10:00:00,
2013-10-05 00:05:00,75.7,68.7,30.05,NE,45,5.0,-999.0,79,0.00,,,0.00,Wunderground v.1.15,2013-10-05 10:05:00,
2013-10-05 00:10:00,75.7,68.7,30.05,NE,45,5.0,-999.0,79,0.00,,,0.00,Wunderground v.1.15,2013-10-05 10:10:00,
2013-10-05 00:15:00,75.7,68.7,30.05,NE,45,5.0,-999.0,79,0.00,,,0.00,Wunderground v.1.15,2013-10-05 10:15:00,
2013-10-05 00:20:00,75.7,68.7,30.05,NE,45,5.0,-999.0,79,0.00,,,0.00,Wunderground v.1.15,2013-10-05 10:20:00,
2013-10-05 00:25:00,75.7,68.7,30.05,NE,45,5.0,-999.0,79,0.00,,,0.00,Wunderground v.1.15,2013-10-05 10:25:00,
2013-10-05 00:30:00,75.7,68.7,30.05,NE,45,5.0,-999.0,79,0.00,,,0.00,Wunderground v.1.15,2013-10-05 10:30:00,
2013-10-05 00:35:00,75.7,68.7,30.05,NE,45,5.0,-999.0,79,0.00,,,0.00,Wunderground v.1.15,2013-10-05 10:35:00,
2013-10-05 00:40:00,75.7,68.7,30.05,NE,45,5.0,-999.0,79,0.00,,,0.00,Wunderground v.1.15,2013-10-05 10:40:00,
2013-10-05 00:45:00,74.5,69.7,30.05,NE,45,4.0,-999.0,85,0.00,,,0.00,Wunderground v.1.15,2013-10-05 10:45:00,
2013-10-05 00:50:00,74.5,69.7,30.05,NE,45,4.0,-999.0,85,0.00,,,0.00,Wunderground v.1.15,2013-10-05 10:50:00,
2013-10-05 00:55:00,74.5,69.7,30.05,NE,45,4.0,-999.0,85,0.00,,,0.00,Wunderground v.1.15,2013-10-05 10:55:00,
2013-10-05 01:00:00,74.5,69.7,30.05,NE,45,4.0,-999.0,85,0.00,,,0.00,Wunderground v.1.15,2013-10-05 11:00:00,
2013-10-05 01:05:00,74.5,69.7,30.05,NE,45,4.0,-999.0,85,0.00,,,0.00,Wunderground v.1.15,2013-10-05 11:05:00,
2013-10-05 01:10:00,74.5,69.7,30.05,NE,45,4.0,-999.0,85,0.00,,,0.00,Wunderground v.1.15,2013-10-05 11:10:00,
2013-10-05 01:15:00,73.0,68.9,30.04,ENE,68,3.0,-999.0,87,0.00,,,0.00,Wunderground v.1.15,2013-10-05 11:15:00,
2013-10-05 01:20:00,73.0,68.9,30.04,ENE,68,3.0,-999.0,87,0.00,,,0.00,Wunderground v.1.15,2013-10-05 11:20:00,
2013-10-05 01:25:00,73.0,68.9,30.04,ENE,68,3.0,-999.0,87,0.00,,,0.00,Wunderground v.1.15,2013-10-05 11:25:00,
2013-10-05 01:30:00,73.0,68.9,30.04,ENE,68,3.0,-999.0,87,0.00,,,0.00,Wunderground v.1.15,2013-10-05 11:30:00,
2013-10-05 01:35:00,73.0,68.9,30.04,ENE,68,3.0,-999.0,87,0.00,,,0.00,Wunderground v.1.15,2013-10-05 11:35:00,
2013-10-05 01:40:00,73.0,68.9,30.04,ENE,68,3.0,-999.0,87,0.00,,,0.00,Wunderground v.1.15,2013-10-05 11:40:00,
2013-10-05 01:45:00,73.0,69.6,30.05,NE,45,4.0,-999.0,89,0.00,,,0.00,Wunderground v.1.15,2013-10-05 11:45:00,
2013-10-05 01:50:00,73.0,69.6,30.05,NE,45,4.0,-999.0,89,0.00,,,0.00,Wunderground v.1.15,2013-10-05 11:50:00,
2013-10-05 01:55:00,73.0,69.6,30.05,NE,45,4.0,-999.0,89,0.00,,,0.00,Wunderground v.1.15,2013-10-05 11:55:00,
2013-10-05 02:00:00,73.0,69.6,30.05,NE,45,4.0,-999.0,89,0.00,,,0.00,Wunderground v.1.15,2013-10-05 12:00:00,
2013-10-05 02:05:00,73.0,69.6,30.05,NE,45,4.0,-999.0,89,0.00,,,0.00,Wunderground v.1.15,2013-10-05 12:05:00,
2013-10-05 02:10:00,73.0,69.6,30.05,NE,45,4.0,-999.0,89,0.00,,,0.00,Wunderground v.1.15,2013-10-05 12:10:00,
2013-10-05 02:15:00,72.8,69.4,30.05,NE,45,3.0,-999.0,89,0.00,,,0.00,Wunderground v.1.15,2013-10-05 12:15:00,
2013-10-05 02:20:00,72.8,69.4,30.05,NE,45,3.0,-999.0,89,0.00,,,0.00,Wunderground v.1.15,2013-10-05 12:20:00,
2013-10-05 02:25:00,72.8,69.4,30.05,NE,45,3.0,-999.0,89,0.00,,,0.00,Wunderground v.1.15,2013-10-05 12:25:00,
2013-10-05 02:30:00,72.8,69.4,30.05,NE,45,3.0,-999.0,89,0.00,,,0.00,Wunderground v.1.15,2013-10-05 12:30:00,
2013-10-05 02:35:00,72.8,69.4,30.05,NE,45,3.0,-999.0,89,0.00,,,0.00,Wunderground v.1.15,2013-10-05 12:35:00,
2013-10-05 02:40:00,72.8,69.4,30.05,NE,45,3.0,-999.0,89,0.00,,,0.00,Wunderground v.1.15,2013-10-05 12:40:00,
2013-10-05 02:45:00,72.5,68.4,30.04,ENE,68,3.0,-999.0,87,0.00,,,0.00,Wunderground v.1.15,2013-10-05 12:45:00,
2013-10-05 02:50:00,72.5,68.4,30.04,ENE,68,3.0,-999.0,87,0.00,,,0.00,Wunderground v.1.15,2013-10-05 12:50:00,
2013-10-05 02:55:00,72.5,68.4,30.04,ENE,68,3.0,-999.0,87,0.00,,,0.00,Wunderground v.1.15,2013-10-05 12:55:00,
2013-10-05 03:00:00,72.5,68.4,30.04,ENE,68,3.0,-999.0,87,0.00,,,0.00,Wunderground v.1.15,2013-10-05 13:00:00,
2013-10-05 03:05:00,72.5,68.4,30.04,ENE,68,3.0,-999.0,87,0.00,,,0.00,Wunderground v.1.15,2013-10-05 13:05:00,
2013-10-05 03:10:00,72.5,68.4,30.04,ENE,68,3.0,-999.0,87,0.00,,,0.00,Wunderground v.1.15,2013-10-05 13:10:00,
2013-10-05 03:15:00,72.0,67.6,30.03,ENE,68,4.0,-999.0,86,0.00,,,0.00,Wunderground v.1.15,2013-10-05 13:15:00,
2013-10-05 03:20:00,72.0,67.6,30.03,ENE,68,4.0,-999.0,86,0.00,,,0.00,Wunderground v.1.15,2013-10-05 13:20:00,
2013-10-05 03:25:00,72.0,67.6,30.03,ENE,68,4.0,-999.0,86,0.00,,,0.00,Wunderground v.1.15,2013-10-05 13:25:00,
2013-10-05 03:30:00,72.0,67.6,30.03,ENE,68,4.0,-999.0,86,0.00,,,0.00,Wunderground v.1.15,2013-10-05 13:30:00,
2013-10-05 03:35:00,72.0,67.6,30.03,ENE,68,4.0,-999.0,86,0.00,,,0.00,Wunderground v.1.15,2013-10-05 13:35:00,
2013-10-05 03:40:00,72.0,67.6,30.03,ENE,68,4.0,-999.0,86,0.00,,,0.00,Wunderground v.1.15,2013-10-05 13:40:00,
2013-10-05 03:45:00,72.1,67.7,30.03,ENE,68,3.0,-999.0,86,0.00,,,0.00,Wunderground v.1.15,2013-10-05 13:45:00,
2013-10-05 03:50:00,72.1,67.7,30.03,ENE,68,3.0,-999.0,86,0.00,,,0.00,Wunderground v.1.15,2013-10-05 13:50:00,
2013-10-05 03:55:00,72.1,67.7,30.03,ENE,68,3.0,-999.0,86,0.00,,,0.00,Wunderground v.1.15,2013-10-05 13:55:00,
2013-10-05 04:00:00,72.1,67.7,30.03,ENE,68,3.0,-999.0,86,0.00,,,0.00,Wunderground v.1.15,2013-10-05 14:00:00,
2013-10-05 04:05:00,72.1,67.7,30.03,ENE,68,3.0,-999.0,86,0.00,,,0.00,Wunderground v.1.15,2013-10-05 14:05:00,
2013-10-05 04:10:00,72.1,67.7,30.03,ENE,68,3.0,-999.0,86,0.00,,,0.00,Wunderground v.1.15,2013-10-05 14:10:00,
2013-10-05 04:15:00,72.0,67.9,30.04,ENE,68,2.0,-999.0,87,0.00,,,0.00,Wunderground v.1.15,2013-10-05 14:15:00,
2013-10-05 04:20:00,72.0,67.9,30.04,ENE,68,2.0,-999.0,87,0.00,,,0.00,Wunderground v.1.15,2013-10-05 14:20:00,
2013-10-05 04:25:00,72.0,67.9,30.04,ENE,68,2.0,-999.0,87,0.00,,,0.00,Wunderground v.1.15,2013-10-05 14:25:00,
2013-10-05 04:30:00,72.0,67.9,30.04,ENE,68,2.0,-999.0,87,0.00,,,0.00,Wunderground v.1.15,2013-10-05 14:30:00,
2013-10-05 04:35:00,72.0,67.9,30.04,ENE,68,2.0,-999.0,87,0.00,,,0.00,Wunderground v.1.15,2013-10-05 14:35:00,
2013-10-05 04:40:00,72.0,67.9,30.04,ENE,68,2.0,-999.0,87,0.00,,,0.00,Wunderground v.1.15,2013-10-05 14:40:00,
2013-10-05 04:45:00,72.0,68.2,30.04,ENE,68,2.0,-999.0,88,0.00,,,0.00,Wunderground v.1.15,2013-10-05 14:45:00,
2013-10-05 04:50:00,72.0,68.2,30.04,ENE,68,2.0,-999.0,88,0.00,,,0.00,Wunderground v.1.15,2013-10-05 14:50:00,
2013-10-05 04:55:00,72.0,68.2,30.04,ENE,68,2.0,-999.0,88,0.00,,,0.00,Wunderground v.1.15,2013-10-05 14:55:00,
2013-10-05 05:00:00,72.0,68.2,30.04,ENE,68,2.0,-999.0,88,0.00,,,0.00,Wunderground v.1.15,2013-10-05 15:00:00,
2013-10-05 05:05:00,72.0,68.2,30.04,ENE,68,2.0,-999.0,88,0.00,,,0.00,Wunderground v.1.15,2013-10-05 15:05:00,
2013-10-05 05:10:00,72.0,68.2,30.04,ENE,68,2.0,-999.0,88,0.00,,,0.00,Wunderground v.1.15,2013-10-05 15:10:00,
2013-10-05 05:15:00,72.4,68.0,30.04,NE,45,2.0,-999.0,86,0.00,,,0.00,Wunderground v.1.15,2013-10-05 15:15:00,
2013-10-05 05:20:00,72.4,68.0,30.04,NE,45,2.0,-999.0,86,0.00,,,0.00,Wunderground v.1.15,2013-10-05 15:20:00,
2013-10-05 05:25:00,72.4,68.0,30.04,NE,45,2.0,-999.0,86,0.00,,,0.00,Wunderground v.1.15,2013-10-05 15:25:00,
2013-10-05 05:30:00,72.4,68.0,30.04,NE,45,2.0,-999.0,86,0.00,,,0.00,Wunderground v.1.15,2013-10-05 15:30:00,
2013-10-05 05:35:00,72.4,68.0,30.04,NE,45,2.0,-999.0,86,0.00,,,0.00,Wunderground v.1.15,2013-10-05 15:35:00,
2013-10-05 05:40:00,72.4,68.0,30.04,NE,45,2.0,-999.0,86,0.00,,,0.00,Wunderground v.1.15,2013-10-05 15:40:00,
2013-10-05 05:45:00,72.2,67.8,30.05,NE,45,0.0,-999.0,86,0.00,,,0.00,Wunderground v.1.15,2013-10-05 15:45:00,
2013-10-05 05:50:00,72.2,67.8,30.05,NE,45,0.0,-999.0,86,0.00,,,0.00,Wunderground v.1.15,2013-10-05 15:50:00,
2013-10-05 05:55:00,72.2,67.8,30.05,NE,45,0.0,-999.0,86,0.00,,,0.00,Wunderground v.1.15,2013-10-05 15:55:00,
2013-10-05 06:00:00,72.2,67.8,30.05,NE,45,0.0,-999.0,86,0.00,,,0.00,Wunderground v.1.15,2013-10-05 16:00:00,
2013-10-05 06:05:00,72.2,67.8,30.05,NE,45,0.0,-999.0,86,0.00,,,0.00,Wunderground v.1.15,2013-10-05 16:05:00,
2013-10-05 06:10:00,72.2,67.8,30.05,NE,45,0.0,-999.0,86,0.00,,,0.00,Wunderground v.1.15,2013-10-05 16:10:00,
2013-10-05 06:15:00,72.0,66.9,30.04,NE,45,1.0,-999.0,84,0.00,,,0.00,Wunderground v.1.15,2013-10-05 16:15:00,
2013-10-05 06:20:00,72.0,66.9,30.04,NE,45,1.0,-999.0,84,0.00,,,0.00,Wunderground v.1.15,2013-10-05 16:20:00,
2013-10-05 06:25:00,72.0,66.9,30.04,NE,45,1.0,-999.0,84,0.00,,,0.00,Wunderground v.1.15,2013-10-05 16:25:00,
2013-10-05 06:30:00,72.0,66.9,30.04,NE,45,1.0,-999.0,84,0.00,,,0.00,Wunderground v.1.15,2013-10-05 16:30:00,
2013-10-05 06:35:00,72.0,66.9,30.04,NE,45,1.0,-999.0,84,0.00,,,0.00,Wunderground v.1.15,2013-10-05 16:35:00,
2013-10-05 06:40:00,72.0,66.9,30.04,NE,45,1.0,-999.0,84,0.00,,,0.00,Wunderground v.1.15,2013-10-05 16:40:00,
2013-10-05 06:45:00,72.2,67.4,30.06,NE,45,2.0,-999.0,85,0.00,,,0.00,Wunderground v.1.15,2013-10-05 16:45:00,
2013-10-05 06:55:00,72.2,67.4,30.06,NE,45,2.0,-999.0,85,0.00,,,0.00,Wunderground v.1.15,2013-10-05 16:55:00,
2013-10-05 07:00:00,72.2,67.4,30.06,NE,45,2.0,-999.0,85,0.00,,,0.00,Wunderground v.1.15,2013-10-05 17:00:00,
2013-10-05 07:05:00,72.2,67.4,30.06,NE,45,2.0,-999.0,85,0.00,,,0.00,Wunderground v.1.15,2013-10-05 17:05:00,
2013-10-05 07:10:00,72.2,67.4,30.06,NE,45,2.0,-999.0,85,0.00,,,0.00,Wunderground v.1.15,2013-10-05 17:10:00,
2013-10-05 07:15:00,72.4,67.6,30.05,NE,45,1.0,-999.0,85,0.00,,,0.00,Wunderground v.1.15,2013-10-05 17:15:00,
2013-10-05 07:20:00,72.4,67.6,30.05,NE,45,1.0,-999.0,85,0.00,,,0.00,Wunderground v.1.15,2013-10-05 17:20:00,
2013-10-05 07:25:00,72.4,67.6,30.05,NE,45,1.0,-999.0,85,0.00,,,0.00,Wunderground v.1.15,2013-10-05 17:25:00,
2013-10-05 07:30:00,72.4,67.6,30.05,NE,45,1.0,-999.0,85,0.00,,,0.00,Wunderground v.1.15,2013-10-05 17:30:00,
2013-10-05 07:35:00,72.4,67.6,30.05,NE,45,1.0,-999.0,85,0.00,,,0.00,Wunderground v.1.15,2013-10-05 17:35:00,
2013-10-05 07:40:00,72.4,67.6,30.05,NE,45,1.0,-999.0,85,0.00,,,0.00,Wunderground v.1.15,2013-10-05 17:40:00,
2013-10-05 07:45:00,74.5,66.4,30.06,NE,45,2.0,-999.0,76,0.00,,,0.00,Wunderground v.1.15,2013-10-05 17:45:00,
2013-10-05 07:50:00,74.5,66.4,30.06,NE,45,2.0,-999.0,76,0.00,,,0.00,Wunderground v.1.15,2013-10-05 17:50:00,
2013-10-05 07:55:00,74.5,66.4,30.06,NE,45,2.0,-999.0,76,0.00,,,0.00,Wunderground v.1.15,2013-10-05 17:55:00,
2013-10-05 08:00:00,74.5,66.4,30.06,NE,45,2.0,-999.0,76,0.00,,,0.00,Wunderground v.1.15,2013-10-05 18:00:00,
2013-10-05 08:05:00,74.5,66.4,30.06,NE,45,2.0,-999.0,76,0.00,,,0.00,Wunderground v.1.15,2013-10-05 18:05:00,
2013-10-05 08:10:00,74.5,66.4,30.06,NE,45,2.0,-999.0,76,0.00,,,0.00,Wunderground v.1.15,2013-10-05 18:10:00,
2013-10-05 08:15:00,79.6,66.3,30.06,NE,45,2.0,-999.0,64,0.00,,,0.00,Wunderground v.1.15,2013-10-05 18:15:00,
2013-10-05 08:20:00,79.6,66.3,30.06,NE,45,2.0,-999.0,64,0.00,,,0.00,Wunderground v.1.15,2013-10-05 18:20:00,
2013-10-05 08:25:00,79.6,66.3,30.06,NE,45,2.0,-999.0,64,0.00,,,0.00,Wunderground v.1.15,2013-10-05 18:25:00,
2013-10-05 08:30:00,79.6,66.3,30.06,NE,45,2.0,-999.0,64,0.00,,,0.00,Wunderground v.1.15,2013-10-05 18:30:00,
2013-10-05 08:35:00,79.6,66.3,30.06,NE,45,2.0,-999.0,64,0.00,,,0.00,Wunderground v.1.15,2013-10-05 18:35:00,
2013-10-05 08:40:00,79.6,66.3,30.06,NE,45,2.0,-999.0,64,0.00,,,0.00,Wunderground v.1.15,2013-10-05 18:40:00,
2013-10-05 08:45:00,82.8,67.5,30.06,ENE,68,3.0,-999.0,60,0.00,,,0.00,Wunderground v.1.15,2013-10-05 18:45:00,
2013-10-05 08:50:00,82.8,67.5,30.06,ENE,68,3.0,-999.0,60,0.00,,,0.00,Wunderground v.1.15,2013-10-05 18:50:00,
2013-10-05 08:55:00,82.8,67.5,30.06,ENE,68,3.0,-999.0,60,0.00,,,0.00,Wunderground v.1.15,2013-10-05 18:55:00,
2013-10-05 09:00:00,82.8,67.5,30.06,ENE,68,3.0,-999.0,60,0.00,,,0.00,Wunderground v.1.15,2013-10-05 19:00:00,
2013-10-05 09:05:00,82.8,67.5,30.06,ENE,68,3.0,-999.0,60,0.00,,,0.00,Wunderground v.1.15,2013-10-05 19:05:00,
2013-10-05 09:10:00,82.8,67.5,30.06,ENE,68,3.0,-999.0,60,0.00,,,0.00,Wunderground v.1.15,2013-10-05 19:10:00,
2013-10-05 09:15:00,83.4,68.1,30.07,East,90,6.0,-999.0,60,0.00,,,0.00,Wunderground v.1.15,2013-10-05 19:15:00,
2013-10-05 09:20:00,83.4,68.1,30.07,East,90,6.0,-999.0,60,0.00,,,0.00,Wunderground v.1.15,2013-10-05 19:20:00,
2013-10-05 09:25:00,83.4,68.1,30.07,East,90,6.0,-999.0,60,0.00,,,0.00,Wunderground v.1.15,2013-10-05 19:25:00,
2013-10-05 09:30:00,83.4,68.1,30.07,East,90,6.0,-999.0,60,0.00,,,0.00,Wunderground v.1.15,2013-10-05 19:30:00,
2013-10-05 09:35:00,83.4,68.1,30.07,East,90,6.0,-999.0,60,0.00,,,0.00,Wunderground v.1.15,2013-10-05 19:35:00,
2013-10-05 09:40:00,83.4,68.1,30.07,East,90,6.0,-999.0,60,0.00,,,0.00,Wunderground v.1.15,2013-10-05 19:40:00,
2013-10-05 09:45:00,83.8,66.9,30.06,East,90,5.0,-999.0,57,0.00,,,0.00,Wunderground v.1.15,2013-10-05 19:45:00,
2013-10-05 09:50:00,83.8,66.9,30.06,East,90,5.0,-999.0,57,0.00,,,0.00,Wunderground v.1.15,2013-10-05 19:50:00,
2013-10-05 09:55:00,83.8,66.9,30.06,East,90,5.0,-999.0,57,0.00,,,0.00,Wunderground v.1.15,2013-10-05 19:55:00,
2013-10-05 10:00:00,83.8,66.9,30.06,East,90,5.0,-999.0,57,0.00,,,0.00,Wunderground v.1.15,2013-10-05 20:00:00,
2013-10-05 10:05:00,83.8,66.9,30.06,East,90,5.0,-999.0,57,0.00,,,0.00,Wunderground v.1.15,2013-10-05 20:05:00,
2013-10-05 10:10:00,83.8,66.9,30.06,East,90,5.0,-999.0,57,0.00,,,0.00,Wunderground v.1.15,2013-10-05 20:10:00,
2013-10-05 10:15:00,84.8,67.9,30.06,East,90,7.0,-999.0,57,0.00,,,0.00,Wunderground v.1.15,2013-10-05 20:15:00,
2013-10-05 10:20:00,84.8,67.9,30.06,East,90,7.0,-999.0,57,0.00,,,0.00,Wunderground v.1.15,2013-10-05 20:20:00,
2013-10-05 10:25:00,84.8,67.9,30.06,East,90,7.0,-999.0,57,0.00,,,0.00,Wunderground v.1.15,2013-10-05 20:25:00,
2013-10-05 10:30:00,84.8,67.9,30.06,East,90,7.0,-999.0,57,0.00,,,0.00,Wunderground v.1.15,2013-10-05 20:30:00,
2013-10-05 10:35:00,84.8,67.9,30.06,East,90,7.0,-999.0,57,0.00,,,0.00,Wunderground v.1.15,2013-10-05 20:35:00,
2013-10-05 10:40:00,84.8,67.9,30.06,East,90,7.0,-999.0,57,0.00,,,0.00,Wunderground v.1.15,2013-10-05 20:40:00,
2013-10-05 10:45:00,84.4,67.5,30.05,East,90,6.0,-999.0,57,0.00,,,0.00,Wunderground v.1.15,2013-10-05 20:45:00,
2013-10-05 10:50:00,84.4,67.5,30.05,East,90,6.0,-999.0,57,0.00,,,0.00,Wunderground v.1.15,2013-10-05 20:50:00,
2013-10-05 10:55:00,84.4,67.5,30.05,East,90,6.0,-999.0,57,0.00,,,0.00,Wunderground v.1.15,2013-10-05 20:55:00,
2013-10-05 11:00:00,84.4,67.5,30.05,East,90,6.0,-999.0,57,0.00,,,0.00,Wunderground v.1.15,2013-10-05 21:00:00,
2013-10-05 11:05:00,84.4,67.5,30.05,East,90,6.0,-999.0,57,0.00,,,0.00,Wunderground v.1.15,2013-10-05 21:05:00,
2013-10-05 11:10:00,84.4,67.5,30.05,East,90,6.0,-999.0,57,0.00,,,0.00,Wunderground v.1.15,2013-10-05 21:10:00,
2013-10-05 11:15:00,84.4,68.0,30.04,East,90,6.0,-999.0,58,0.00,,,0.00,Wunderground v.1.15,2013-10-05 21:15:00,
2013-10-05 11:20:00,84.4,68.0,30.04,East,90,6.0,-999.0,58,0.00,,,0.00,Wunderground v.1.15,2013-10-05 21:20:00,
2013-10-05 11:25:00,84.4,68.0,30.04,East,90,6.0,-999.0,58,0.00,,,0.00,Wunderground v.1.15,2013-10-05 21:25:00,
2013-10-05 11:30:00,84.4,68.0,30.04,East,90,6.0,-999.0,58,0.00,,,0.00,Wunderground v.1.15,2013-10-05 21:30:00,
2013-10-05 11:35:00,84.4,68.0,30.04,East,90,6.0,-999.0,58,0.00,,,0.00,Wunderground v.1.15,2013-10-05 21:35:00,
2013-10-05 11:40:00,84.4,68.0,30.04,East,90,6.0,-999.0,58,0.00,,,0.00,Wunderground v.1.15,2013-10-05 21:40:00,
2013-10-05 11:45:00,86.4,68.8,30.03,NE,45,8.0,-999.0,56,0.00,,,0.00,Wunderground v.1.15,2013-10-05 21:45:00,
2013-10-05 11:50:00,86.4,68.8,30.03,NE,45,8.0,-999.0,56,0.00,,,0.00,Wunderground v.1.15,2013-10-05 21:50:00,
2013-10-05 11:55:00,86.4,68.8,30.03,NE,45,8.0,-999.0,56,0.00,,,0.00,Wunderground v.1.15,2013-10-05 21:55:00,
2013-10-05 12:00:00,86.4,68.8,30.03,NE,45,8.0,-999.0,56,0.00,,,0.00,Wunderground v.1.15,2013-10-05 22:00:00,
2013-10-05 12:05:00,86.4,68.8,30.03,NE,45,8.0,-999.0,56,0.00,,,0.00,Wunderground v.1.15,2013-10-05 22:05:00,
2013-10-05 12:10:00,86.4,68.8,30.03,NE,45,8.0,-999.0,56,0.00,,,0.00,Wunderground v.1.15,2013-10-05 22:10:00,
2013-10-05 12:15:00,87.7,69.0,30.01,NE,45,9.0,-999.0,54,0.00,,,0.00,Wunderground v.1.15,2013-10-05 22:15:00,
2013-10-05 12:20:00,87.7,69.0,30.01,NE,45,9.0,-999.0,54,0.00,,,0.00,Wunderground v.1.15,2013-10-05 22:20:00,
2013-10-05 12:25:00,87.7,69.0,30.01,NE,45,9.0,-999.0,54,0.00,,,0.00,Wunderground v.1.15,2013-10-05 22:25:00,
2013-10-05 12:30:00,87.7,69.0,30.01,NE,45,9.0,-999.0,54,0.00,,,0.00,Wunderground v.1.15,2013-10-05 22:30:00,
2013-10-05 12:35:00,87.7,69.0,30.01,NE,45,9.0,-999.0,54,0.00,,,0.00,Wunderground v.1.15,2013-10-05 22:35:00,
2013-10-05 12:40:00,87.7,69.0,30.01,NE,45,9.0,-999.0,54,0.00,,,0.00,Wunderground v.1.15,2013-10-05 22:40:00,
2013-10-05 12:45:00,86.8,70.8,30.01,NE,45,9.0,-999.0,59,0.00,,,0.00,Wunderground v.1.15,2013-10-05 22:45:00,
2013-10-05 12:50:00,86.8,70.8,30.01,NE,45,9.0,-999.0,59,0.00,,,0.00,Wunderground v.1.15,2013-10-05 22:50:00,
2013-10-05 12:55:00,86.8,70.8,30.01,NE,45,9.0,-999.0,59,0.00,,,0.00,Wunderground v.1.15,2013-10-05 22:55:00,
2013-10-05 13:00:00,86.8,70.8,30.01,NE,45,9.0,-999.0,59,0.00,,,0.00,Wunderground v.1.15,2013-10-05 23:00:00,
2013-10-05 13:05:00,86.8,70.8,30.01,NE,45,9.0,-999.0,59,0.00,,,0.00,Wunderground v.1.15,2013-10-05 23:05:00,
2013-10-05 13:10:00,86.8,70.8,30.01,NE,45,9.0,-999.0,59,0.00,,,0.00,Wunderground v.1.15,2013-10-05 23:10:00,
2013-10-05 13:15:00,86.2,68.7,30.00,NE,45,9.0,-999.0,56,0.00,,,0.00,Wunderground v.1.15,2013-10-05 23:15:00,
2013-10-05 13:20:00,86.2,68.7,30.00,NE,45,9.0,-999.0,56,0.00,,,0.00,Wunderground v.1.15,2013-10-05 23:20:00,
2013-10-05 13:25:00,86.2,68.7,30.00,NE,45,9.0,-999.0,56,0.00,,,0.00,Wunderground v.1.15,2013-10-05 23:25:00,
2013-10-05 13:30:00,86.2,68.7,30.00,NE,45,9.0,-999.0,56,0.00,,,0.00,Wunderground v.1.15,2013-10-05 23:30:00,
2013-10-05 13:35:00,86.2,68.7,30.00,NE,45,9.0,-999.0,56,0.00,,,0.00,Wunderground v.1.15,2013-10-05 23:35:00,
2013-10-05 13:40:00,86.2,68.7,30.00,NE,45,9.0,-999.0,56,0.00,,,0.00,Wunderground v.1.15,2013-10-05 23:40:00,
2013-10-05 13:45:00,87.1,67.9,29.98,NE,45,9.0,-999.0,53,0.00,,,0.00,Wunderground v.1.15,2013-10-05 23:45:00,
2013-10-05 13:50:00,87.1,67.9,29.98,NE,45,9.0,-999.0,53,0.00,,,0.00,Wunderground v.1.15,2013-10-05 23:50:00,
2013-10-05 13:55:00,87.1,67.9,29.98,NE,45,9.0,-999.0,53,0.00,,,0.00,Wunderground v.1.15,2013-10-05 23:55:00,
2013-10-05 14:00:00,87.1,67.9,29.98,NE,45,9.0,-999.0,53,0.00,,,0.00,Wunderground v.1.15,2013-10-06 00:00:00,
2013-10-05 14:05:00,87.1,67.9,29.98,NE,45,9.0,-999.0,53,0.00,,,0.00,Wunderground v.1.15,2013-10-06 00:05:00,
2013-10-05 14:10:00,87.1,67.9,29.98,NE,45,9.0,-999.0,53,0.00,,,0.00,Wunderground v.1.15,2013-10-06 00:10:00,
2013-10-05 14:15:00,88.0,68.2,29.98,NE,45,9.0,-999.0,52,0.00,,,0.00,Wunderground v.1.15,2013-10-06 00:15:00,
2013-10-05 14:20:00,88.0,68.2,29.98,NE,45,9.0,-999.0,52,0.00,,,0.00,Wunderground v.1.15,2013-10-06 00:20:00,
2013-10-05 14:25:00,88.0,68.2,29.98,NE,45,9.0,-999.0,52,0.00,,,0.00,Wunderground v.1.15,2013-10-06 00:25:00,
2013-10-05 14:30:00,88.0,68.2,29.98,NE,45,9.0,-999.0,52,0.00,,,0.00,Wunderground v.1.15,2013-10-06 00:30:00,
2013-10-05 14:35:00,88.0,68.2,29.98,NE,45,9.0,-999.0,52,0.00,,,0.00,Wunderground v.1.15,2013-10-06 00:35:00,
2013-10-05 14:40:00,88.0,68.2,29.98,NE,45,9.0,-999.0,52,0.00,,,0.00,Wunderground v.1.15,2013-10-06 00:40:00,
2013-10-05 14:45:00,88.4,70.7,29.99,NE,45,9.0,-999.0,56,0.00,,,0.00,Wunderground v.1.15,2013-10-06 00:45:00,
2013-10-05 14:50:00,88.4,70.7,29.99,NE,45,9.0,-999.0,56,0.00,,,0.00,Wunderground v.1.15,2013-10-06 00:50:00,
2013-10-05 14:55:00,88.4,70.7,29.99,NE,45,9.0,-999.0,56,0.00,,,0.00,Wunderground v.1.15,2013-10-06 00:55:00,
2013-10-05 15:00:00,88.4,70.7,29.99,NE,45,9.0,-999.0,56,0.00,,,0.00,Wunderground v.1.15,2013-10-06 01:00:00,
2013-10-05 15:05:00,88.4,70.7,29.99,NE,45,9.0,-999.0,56,0.00,,,0.00,Wunderground v.1.15,2013-10-06 01:05:00,
2013-10-05 15:10:00,88.4,70.7,29.99,NE,45,9.0,-999.0,56,0.00,,,0.00,Wunderground v.1.15,2013-10-06 01:10:00,
2013-10-05 15:15:00,86.2,66.5,29.98,NE,45,8.0,-999.0,52,0.00,,,0.00,Wunderground v.1.15,2013-10-06 01:15:00,
2013-10-05 15:20:00,86.2,66.5,29.98,NE,45,8.0,-999.0,52,0.00,,,0.00,Wunderground v.1.15,2013-10-06 01:20:00,
2013-10-05 15:25:00,86.2,66.5,29.98,NE,45,8.0,-999.0,52,0.00,,,0.00,Wunderground v.1.15,2013-10-06 01:25:00,
2013-10-05 15:30:00,86.2,66.5,29.98,NE,45,8.0,-999.0,52,0.00,,,0.00,Wunderground v.1.15,2013-10-06 01:30:00,
2013-10-05 15:35:00,86.2,66.5,29.98,NE,45,8.0,-999.0,52,0.00,,,0.00,Wunderground v.1.15,2013-10-06 01:35:00,
2013-10-05 15:40:00,86.2,66.5,29.98,NE,45,8.0,-999.0,52,0.00,,,0.00,Wunderground v.1.15,2013-10-06 01:40:00,
2013-10-05 15:45:00,86.4,69.4,29.99,NE,45,8.0,-999.0,57,0.00,,,0.00,Wunderground v.1.15,2013-10-06 01:45:00,
2013-10-05 15:50:00,86.4,69.4,29.99,NE,45,8.0,-999.0,57,0.00,,,0.00,Wunderground v.1.15,2013-10-06 01:50:00,
2013-10-05 15:55:00,86.4,69.4,29.99,NE,45,8.0,-999.0,57,0.00,,,0.00,Wunderground v.1.15,2013-10-06 01:55:00,
2013-10-05 16:00:00,86.4,69.4,29.99,NE,45,8.0,-999.0,57,0.00,,,0.00,Wunderground v.1.15,2013-10-06 02:00:00,
2013-10-05 16:05:00,86.4,69.4,29.99,NE,45,8.0,-999.0,57,0.00,,,0.00,Wunderground v.1.15,2013-10-06 02:05:00,
2013-10-05 16:10:00,86.4,69.4,29.99,NE,45,8.0,-999.0,57,0.00,,,0.00,Wunderground v.1.15,2013-10-06 02:10:00,
2013-10-05 16:15:00,83.9,69.0,29.99,ENE,68,6.0,-999.0,61,0.00,,,0.00,Wunderground v.1.15,2013-10-06 02:15:00,
2013-10-05 16:20:00,83.9,69.0,29.99,ENE,68,6.0,-999.0,61,0.00,,,0.00,Wunderground v.1.15,2013-10-06 02:20:00,
2013-10-05 16:25:00,83.9,69.0,29.99,ENE,68,6.0,-999.0,61,0.00,,,0.00,Wunderground v.1.15,2013-10-06 02:25:00,
2013-10-05 16:30:00,83.9,69.0,29.99,ENE,68,6.0,-999.0,61,0.00,,,0.00,Wunderground v.1.15,2013-10-06 02:30:00,
2013-10-05 16:35:00,83.9,69.0,29.99,ENE,68,6.0,-999.0,61,0.00,,,0.00,Wunderground v.1.15,2013-10-06 02:35:00,
2013-10-05 16:40:00,83.9,69.0,29.99,ENE,68,6.0,-999.0,61,0.00,,,0.00,Wunderground v.1.15,2013-10-06 02:40:00,
2013-10-05 16:45:00,83.1,70.1,29.99,NE,45,7.0,-999.0,65,0.00,,,0.00,Wunderground v.1.15,2013-10-06 02:45:00,
2013-10-05 16:50:00,83.1,70.1,29.99,NE,45,7.0,-999.0,65,0.00,,,0.00,Wunderground v.1.15,2013-10-06 02:50:00,
2013-10-05 16:55:00,83.1,70.1,29.99,NE,45,7.0,-999.0,65,0.00,,,0.00,Wunderground v.1.15,2013-10-06 02:55:00,
2013-10-05 17:00:00,83.1,70.1,29.99,NE,45,7.0,-999.0,65,0.00,,,0.00,Wunderground v.1.15,2013-10-06 03:00:00,
2013-10-05 17:05:00,83.1,70.1,29.99,NE,45,7.0,-999.0,65,0.00,,,0.00,Wunderground v.1.15,2013-10-06 03:05:00,
2013-10-05 17:10:00,83.1,70.1,29.99,NE,45,7.0,-999.0,65,0.00,,,0.00,Wunderground v.1.15,2013-10-06 03:10:00,
2013-10-05 17:15:00,81.3,69.3,30.00,NE,45,7.0,-999.0,67,0.00,,,0.00,Wunderground v.1.15,2013-10-06 03:15:00,
2013-10-05 17:20:00,81.3,69.3,30.00,NE,45,7.0,-999.0,67,0.00,,,0.00,Wunderground v.1.15,2013-10-06 03:20:00,
2013-10-05 17:25:00,81.3,69.3,30.00,NE,45,7.0,-999.0,67,0.00,,,0.00,Wunderground v.1.15,2013-10-06 03:25:00,
2013-10-05 17:30:00,81.3,69.3,30.00,NE,45,7.0,-999.0,67,0.00,,,0.00,Wunderground v.1.15,2013-10-06 03:30:00,
2013-10-05 17:35:00,81.3,69.3,30.00,NE,45,7.0,-999.0,67,0.00,,,0.00,Wunderground v.1.15,2013-10-06 03:35:00,
2013-10-05 17:40:00,81.3,69.3,30.00,NE,45,7.0,-999.0,67,0.00,,,0.00,Wunderground v.1.15,2013-10-06 03:40:00,
2013-10-05 17:45:00,79.3,67.4,30.01,NE,45,6.0,-999.0,67,0.00,,,0.00,Wunderground v.1.15,2013-10-06 03:45:00,
2013-10-05 17:50:00,79.3,67.4,30.01,NE,45,6.0,-999.0,67,0.00,,,0.00,Wunderground v.1.15,2013-10-06 03:50:00,
2013-10-05 17:55:00,79.3,67.4,30.01,NE,45,6.0,-999.0,67,0.00,,,0.00,Wunderground v.1.15,2013-10-06 03:55:00,
2013-10-05 18:00:00,79.3,67.4,30.01,NE,45,6.0,-999.0,67,0.00,,,0.00,Wunderground v.1.15,2013-10-06 04:00:00,
2013-10-05 18:05:00,79.3,67.4,30.01,NE,45,6.0,-999.0,67,0.00,,,0.00,Wunderground v.1.15,2013-10-06 04:05:00,
2013-10-05 18:10:00,79.3,67.4,30.01,NE,45,6.0,-999.0,67,0.00,,,0.00,Wunderground v.1.15,2013-10-06 04:10:00,
2013-10-05 18:15:00,78.0,67.8,30.01,NE,45,6.0,-999.0,71,0.00,,,0.00,Wunderground v.1.15,2013-10-06 04:15:00,
2013-10-05 18:20:00,78.0,67.8,30.01,NE,45,6.0,-999.0,71,0.00,,,0.00,Wunderground v.1.15,2013-10-06 04:20:00,
2013-10-05 18:25:00,78.0,67.8,30.01,NE,45,6.0,-999.0,71,0.00,,,0.00,Wunderground v.1.15,2013-10-06 04:25:00,
2013-10-05 18:30:00,78.0,67.8,30.01,NE,45,6.0,-999.0,71,0.00,,,0.00,Wunderground v.1.15,2013-10-06 04:30:00,
2013-10-05 18:35:00,78.0,67.8,30.01,NE,45,6.0,-999.0,71,0.00,,,0.00,Wunderground v.1.15,2013-10-06 04:35:00,
2013-10-05 18:40:00,78.0,67.8,30.01,NE,45,6.0,-999.0,71,0.00,,,0.00,Wunderground v.1.15,2013-10-06 04:40:00,
2013-10-05 18:45:00,77.1,67.4,30.02,NE,45,6.0,-999.0,72,0.00,,,0.00,Wunderground v.1.15,2013-10-06 04:45:00,
2013-10-05 18:50:00,77.1,67.4,30.02,NE,45,6.0,-999.0,72,0.00,,,0.00,Wunderground v.1.15,2013-10-06 04:50:00,
2013-10-05 18:55:00,77.1,67.4,30.02,NE,45,6.0,-999.0,72,0.00,,,0.00,Wunderground v.1.15,2013-10-06 04:55:00,
2013-10-05 19:00:00,77.1,67.4,30.02,NE,45,6.0,-999.0,72,0.00,,,0.00,Wunderground v.1.15,2013-10-06 05:00:00,
2013-10-05 19:05:00,77.1,67.4,30.02,NE,45,6.0,-999.0,72,0.00,,,0.00,Wunderground v.1.15,2013-10-06 05:05:00,
2013-10-05 19:10:00,77.1,67.4,30.02,NE,45,6.0,-999.0,72,0.00,,,0.00,Wunderground v.1.15,2013-10-06 05:10:00,
2013-10-05 19:15:00,76.5,66.8,30.03,NE,45,4.0,-999.0,72,0.00,,,0.00,Wunderground v.1.15,2013-10-06 05:15:00,
2013-10-05 19:20:00,76.5,66.8,30.03,NE,45,4.0,-999.0,72,0.00,,,0.00,Wunderground v.1.15,2013-10-06 05:20:00,
2013-10-05 19:25:00,76.5,66.8,30.03,NE,45,4.0,-999.0,72,0.00,,,0.00,Wunderground v.1.15,2013-10-06 05:25:00,
2013-10-05 19:30:00,76.5,66.8,30.03,NE,45,4.0,-999.0,72,0.00,,,0.00,Wunderground v.1.15,2013-10-06 05:30:00,
2013-10-05 19:35:00,76.5,66.8,30.03,NE,45,4.0,-999.0,72,0.00,,,0.00,Wunderground v.1.15,2013-10-06 05:35:00,
2013-10-05 19:40:00,76.5,66.8,30.03,NE,45,4.0,-999.0,72,0.00,,,0.00,Wunderground v.1.15,2013-10-06 05:40:00,
2013-10-05 19:45:00,76.8,66.3,30.05,East,90,4.0,-999.0,70,0.00,,,0.00,Wunderground v.1.15,2013-10-06 05:45:00,
2013-10-05 19:50:00,76.8,66.3,30.05,East,90,4.0,-999.0,70,0.00,,,0.00,Wunderground v.1.15,2013-10-06 05:50:00,
2013-10-05 19:55:00,76.8,66.3,30.05,East,90,4.0,-999.0,70,0.00,,,0.00,Wunderground v.1.15,2013-10-06 05:55:00,
2013-10-05 20:00:00,76.8,66.3,30.05,East,90,4.0,-999.0,70,0.00,,,0.00,Wunderground v.1.15,2013-10-06 06:00:00,
2013-10-05 20:05:00,76.8,66.3,30.05,East,90,4.0,-999.0,70,0.00,,,0.00,Wunderground v.1.15,2013-10-06 06:05:00,
2013-10-05 20:10:00,76.8,66.3,30.05,East,90,4.0,-999.0,70,0.00,,,0.00,Wunderground v.1.15,2013-10-06 06:10:00,
2013-10-05 20:15:00,77.1,65.7,30.05,ENE,68,4.0,-999.0,68,0.00,,,0.00,Wunderground v.1.15,2013-10-06 06:15:00,
2013-10-05 20:20:00,77.1,65.7,30.05,ENE,68,4.0,-999.0,68,0.00,,,0.00,Wunderground v.1.15,2013-10-06 06:20:00,
2013-10-05 20:25:00,77.1,65.7,30.05,ENE,68,4.0,-999.0,68,0.00,,,0.00,Wunderground v.1.15,2013-10-06 06:25:00,
2013-10-05 20:30:00,77.1,65.7,30.05,ENE,68,4.0,-999.0,68,0.00,,,0.00,Wunderground v.1.15,2013-10-06 06:30:00,
2013-10-05 20:35:00,77.1,65.7,30.05,ENE,68,4.0,-999.0,68,0.00,,,0.00,Wunderground v.1.15,2013-10-06 06:35:00,
2013-10-05 20:40:00,77.1,65.7,30.05,ENE,68,4.0,-999.0,68,0.00,,,0.00,Wunderground v.1.15,2013-10-06 06:40:00,
2013-10-05 20:45:00,77.3,66.3,30.06,NE,45,4.0,-999.0,69,0.00,,,0.00,Wunderground v.1.15,2013-10-06 06:45:00,
2013-10-05 20:50:00,77.3,66.3,30.06,NE,45,4.0,-999.0,69,0.00,,,0.00,Wunderground v.1.15,2013-10-06 06:50:00,
2013-10-05 20:55:00,77.3,66.3,30.06,NE,45,4.0,-999.0,69,0.00,,,0.00,Wunderground v.1.15,2013-10-06 06:55:00,
2013-10-05 21:00:00,77.3,66.3,30.06,NE,45,4.0,-999.0,69,0.00,,,0.00,Wunderground v.1.15,2013-10-06 07:00:00,
2013-10-05 21:05:00,77.3,66.3,30.06,NE,45,4.0,-999.0,69,0.00,,,0.00,Wunderground v.1.15,2013-10-06 07:05:00,
2013-10-05 21:10:00,77.3,66.3,30.06,NE,45,4.0,-999.0,69,0.00,,,0.00,Wunderground v.1.15,2013-10-06 07:10:00,
2013-10-05 21:15:00,77.2,67.1,30.06,NE,45,4.0,-999.0,71,0.00,,,0.00,Wunderground v.1.15,2013-10-06 07:15:00,
2013-10-05 21:20:00,77.2,67.1,30.06,NE,45,4.0,-999.0,71,0.00,,,0.00,Wunderground v.1.15,2013-10-06 07:20:00,
2013-10-05 21:25:00,77.2,67.1,30.06,NE,45,4.0,-999.0,71,0.00,,,0.00,Wunderground v.1.15,2013-10-06 07:25:00,
2013-10-05 21:30:00,77.2,67.1,30.06,NE,45,4.0,-999.0,71,0.00,,,0.00,Wunderground v.1.15,2013-10-06 07:30:00,
2013-10-05 21:35:00,77.2,67.1,30.06,NE,45,4.0,-999.0,71,0.00,,,0.00,Wunderground v.1.15,2013-10-06 07:35:00,
2013-10-05 21:40:00,77.2,67.1,30.06,NE,45,4.0,-999.0,71,0.00,,,0.00,Wunderground v.1.15,2013-10-06 07:40:00,
2013-10-05 21:45:00,77.1,66.6,30.06,ENE,68,2.0,-999.0,70,0.00,,,0.00,Wunderground v.1.15,2013-10-06 07:45:00,
2013-10-05 21:50:00,77.1,66.6,30.06,ENE,68,2.0,-999.0,70,0.00,,,0.00,Wunderground v.1.15,2013-10-06 07:50:00,
2013-10-05 21:55:00,77.1,66.6,30.06,ENE,68,2.0,-999.0,70,0.00,,,0.00,Wunderground v.1.15,2013-10-06 07:55:00,
2013-10-05 22:00:00,77.1,66.6,30.06,ENE,68,2.0,-999.0,70,0.00,,,0.00,Wunderground v.1.15,2013-10-06 08:00:00,
2013-10-05 22:05:00,77.1,66.6,30.06,ENE,68,2.0,-999.0,70,0.02,,,0.02,Wunderground v.1.15,2013-10-06 08:05:00,
2013-10-05 22:10:00,77.1,66.6,30.06,ENE,68,2.0,-999.0,70,0.02,,,0.02,Wunderground v.1.15,2013-10-06 08:10:00,
2013-10-05 22:15:00,77.2,65.4,30.06,NE,45,2.0,-999.0,67,0.02,,,0.02,Wunderground v.1.15,2013-10-06 08:15:00,
2013-10-05 22:20:00,77.2,65.4,30.06,NE,45,2.0,-999.0,67,0.02,,,0.02,Wunderground v.1.15,2013-10-06 08:20:00,
2013-10-05 22:25:00,77.2,65.4,30.06,NE,45,2.0,-999.0,67,0.02,,,0.02,Wunderground v.1.15,2013-10-06 08:25:00,
2013-10-05 22:30:00,77.2,65.4,30.06,NE,45,2.0,-999.0,67,0.02,,,0.02,Wunderground v.1.15,2013-10-06 08:30:00,
2013-10-05 22:35:00,77.2,65.4,30.06,NE,45,2.0,-999.0,67,0.02,,,0.02,Wunderground v.1.15,2013-10-06 08:35:00,
2013-10-05 22:40:00,77.2,65.4,30.06,NE,45,2.0,-999.0,67,0.02,,,0.02,Wunderground v.1.15,2013-10-06 08:40:00,
2013-10-05 22:45:00,77.1,66.6,30.06,NE,45,1.0,-999.0,70,0.00,,,0.02,Wunderground v.1.15,2013-10-06 08:45:00,
2013-10-05 22:50:00,77.1,66.6,30.06,NE,45,1.0,-999.0,70,0.00,,,0.02,Wunderground v.1.15,2013-10-06 08:50:00,
2013-10-05 22:55:00,77.1,66.6,30.06,NE,45,1.0,-999.0,70,0.00,,,0.02,Wunderground v.1.15,2013-10-06 08:55:00,
2013-10-05 23:00:00,77.1,66.6,30.06,NE,45,1.0,-999.0,70,0.00,,,0.02,Wunderground v.1.15,2013-10-06 09:00:00,
2013-10-05 23:05:00,77.1,66.6,30.06,NE,45,1.0,-999.0,70,0.00,,,0.02,Wunderground v.1.15,2013-10-06 09:05:00,
2013-10-05 23:10:00,77.1,66.6,30.06,NE,45,1.0,-999.0,70,0.00,,,0.02,Wunderground v.1.15,2013-10-06 09:10:00,
2013-10-05 23:15:00,76.1,66.8,30.06,NE,45,0.0,-999.0,73,0.00,,,0.02,Wunderground v.1.15,2013-10-06 09:15:00,
2013-10-05 23:20:00,76.1,66.8,30.06,NE,45,0.0,-999.0,73,0.00,,,0.02,Wunderground v.1.15,2013-10-06 09:20:00,
2013-10-05 23:25:00,76.1,66.8,30.06,NE,45,0.0,-999.0,73,0.00,,,0.02,Wunderground v.1.15,2013-10-06 09:25:00,
2013-10-05 23:30:00,76.1,66.8,30.06,NE,45,0.0,-999.0,73,0.00,,,0.02,Wunderground v.1.15,2013-10-06 09:30:00,
2013-10-05 23:35:00,76.1,66.8,30.06,NE,45,0.0,-999.0,73,0.00,,,0.02,Wunderground v.1.15,2013-10-06 09:35:00,
2013-10-05 23:40:00,76.1,66.8,30.06,NE,45,0.0,-999.0,73,0.00,,,0.02,Wunderground v.1.15,2013-10-06 09:40:00,
2013-10-05 23:45:00,75.6,67.9,30.05,NE,45,1.0,-999.0,77,0.00,,,0.02,Wunderground v.1.15,2013-10-06 09:45:00,
2013-10-05 23:50:00,75.6,67.9,30.05,NE,45,1.0,-999.0,77,0.00,,,0.02,Wunderground v.1.15,2013-10-06 09:50:00,
2013-10-05 23:55:00,75.6,67.9,30.05,NE,45,1.0,-999.0,77,0.00,,,0.02,Wunderground v.1.15,2013-10-06 09:55:00,